EW7287 Weather Reports


time (UTC)temp
F
wind
direction
speed
knots
gust
knots
rain 1hr
in
rain 24hr
in
rain mn
in
humidity
%
barometer
mb
20260504050000 42 286 0.0 0.0 0.00 0.00 0.00 80 1016.8
20260504044605 42 286 0.0 0.0 0.00 0.00 0.00 80 1016.8
20260504043059 42 286 0.0 0.0 0.00 0.00 0.00 79 1016.8
20260504041554 43 286 0.0 0.0 0.00 0.00 0.00 75 1016.7
20260504040052 43 286 0.0 0.0 0.00 0.00 0.00 75 1016.6
20260504034607 44 286 0.0 0.0 0.00 0.00 0.00 76 1016.3
20260504033051 44 286 0.0 0.0 0.00 0.00 0.00 76 1016.3
20260504031551 45 286 0.0 0.0 0.00 0.00 0.00 74 1016.3
20260504030050 45 286 0.0 0.0 0.00 0.00 0.00 71 1016.2
20260504024550 46 286 0.0 0.0 0.00 0.00 0.00 68 1016.2
20260504023049 46 286 0.0 0.0 0.00 0.00 0.00 69 1016.1
20260504021548 47 286 0.0 0.0 0.00 0.00 0.00 63 1016.0
20260504020048 48 286 0.0 0.0 0.00 0.00 0.00 62 1016.0
20260504014600 48 286 0.0 0.0 0.00 0.00 0.00 62 1015.9
20260504013051 49 286 0.0 0.0 0.00 0.00 0.00 56 1015.9
20260504011546 50 286 0.0 0.0 0.00 0.00 0.00 54 1015.8
20260504010048 51 286 0.0 0.0 0.00 0.00 0.00 51 1015.6
20260504004547 52 286 0.0 0.0 0.00 0.00 0.00 49 1015.5
20260504003050 54 286 0.0 0.9 0.00 0.00 0.00 44 1015.3
20260504001545 56 286 0.9 2.6 0.00 0.00 0.00 40 1015.2
20260504000047 57 286 0.9 2.6 0.00 0.00 0.00 37 1015.1
20260503234548 58 286 3.5 7.8 0.00 0.00 0.00 36 1015.0
20260503233042 59 294 4.3 8.7 0.00 0.00 0.00 34 1014.8
20260503231542 59 333 3.5 11.3 0.00 0.00 0.00 34 1014.7
20260503230045 59 298 5.2 9.6 0.00 0.00 0.00 33 1014.7
20260503224641 59 296 6.1 13.9 0.00 0.00 0.00 33 1014.7
20260503223040 59 267 9.6 15.6 0.00 0.00 0.00 33 1014.7
20260503221539 59 293 7.8 11.3 0.00 0.00 0.00 33 1014.8
20260503220046 59 341 6.1 13.9 0.00 0.00 0.00 34 1014.8
20260503214538 59 271 12.2 20.0 0.00 0.00 0.00 33 1014.9
20260503213037 59 305 11.3 25.2 0.00 0.00 0.00 33 1014.7
20260503211536 59 289 12.2 18.2 0.00 0.00 0.00 32 1014.7
20260503210038 59 345 12.2 16.5 0.00 0.00 0.00 32 1014.8
20260503204535 58 297 7.8 18.2 0.00 0.00 0.00 34 1014.8
20260503203034 58 286 7.8 16.5 0.00 0.00 0.00 32 1014.9
20260503201533 58 306 7.8 20.0 0.00 0.00 0.00 33 1014.9
20260503200030 57 290 10.4 18.2 0.00 0.00 0.00 32 1015.1
20260503194527 57 257 6.1 14.8 0.00 0.00 0.00 35 1015.3
20260503193029 56 285 9.6 20.9 0.00 0.00 0.00 38 1015.6
20260503191522 56 248 13.0 25.2 0.00 0.00 0.00 36 1015.7
20260503190020 55 261 7.0 20.0 0.00 0.00 0.00 37 1015.7
20260503184518 55 330 9.6 17.4 0.00 0.00 0.00 38 1015.9
20260503183024 55 311 10.4 18.2 0.00 0.00 0.00 39 1016.3
20260503181515 54 275 13.0 19.1 0.00 0.00 0.00 40 1016.3
20260503180018 54 330 12.2 18.2 0.00 0.00 0.00 39 1016.4
20260503174512 53 254 7.8 21.7 0.00 0.00 0.00 42 1016.5
20260503173011 53 238 10.4 20.0 0.00 0.00 0.00 43 1016.6
20260503171509 52 325 13.9 20.0 0.00 0.00 0.00 41 1016.7
20260503081515 40 272 6.1 11.3 0.00 0.00 0.00 75 1014.9
20260503071508 41 294 5.2 8.7 0.00 0.00 0.00 72 1014.3